Tracking 19570 objects as of 22-Feb-2019
HD Live streaming from Space Station
objects crossing your sky now

METEOR 1-22

Track METEOR 1-22 now!
10-day predictions
METEOR 1-22 is classified as:


NORAD ID: 8293
Int'l Code: 1975-087A
Perigee: 804.4 km
Apogee: 913.1 km
Inclination: 81.3 °
Period: 102.0 minutes
Semi major axis: 7229 km
RCS: 4.5926 m2 (large)
Launch date: September 18, 1975
Source: Commonwealth of Independent States (former USSR) (CIS)
Launch site: PLESETSK MISSILE AND SPACE COMPLEX (PKMTR)
aabbcc
Your satellite tracking list
Your tracking list is empty




NASA's NSSDC Master Catalog

Two Line Element Set (TLE):
1  8293U 75087A   19053.18478225 -.00000134  00000-0 -77405-4 0  9991
2  8293  81.2528  73.3877 0075218   3.9890 356.1865 14.12269922236134
Source of the keplerian elements: AFSPC